Location: Andershausen
(51.8462°N, 9.8595°E)
Time: 09:23:07
(UTC+00:00)

Cosmos 841 Rocket - Pass Details

Date: 18 November 2025
Orbit: 742 x 768 km, 74.0° (Epoch: 11 December)

Event Time Altitude Azimuth Distance (km) Brightness Sun altitude
Rises 17:25:39 0° 335° (NNW) 3,249 7.0 -18.2°
Reaches altitude 10° 17:28:02 10° 337° (NNW) 2,320 6.2 -18.5°
Maximum altitude 17:33:19 76° 64° (ENE) 796 3.4 -19.3°
Drops below altitude 10° 17:38:33 10° 150° (SSE) 2,303 5.7 -20.1°
Enters shadow 17:38:54 - 151° (SSE) 2,433 5.9 -20.2°
